User: anonymous   Login
Location: Unspecified
(0.0000°N, 0.0000°E)
Time: 00:03:59
(UTC+00:00)
Language:

STARLINK-3291 - Orbit

View from above orbital plane
View from above orbital plane
View from above satellite
View from above satellite

Ground track
Ground track

The orbit is defined by the following mean orbital elements,

1 50175U          26145.47904168 +.00000000 +00000-0 -39874-2 0 00002
2 50175  53.2153 264.4034 0002886  73.2475 286.8833 15.08385383    06
Epoch (UTC): 25 May 2026 11:29:49
Eccentricity: 0.0002886
inclination: 53.2153°
perigee height: 539 km
apogee height: 543 km
right ascension of ascending node: 264.4034°
argument of perigee: 73.2475°
revolutions per day: 15.08385383
mean anomaly at epoch: 286.8833°

The dashed part of the orbit path shows where the satellite is in the earth's shadow,  

DLR